Wind_Speed
0 2 4 5 7 6 5 6 6 5 4 4 4 3 6 6 8 10 6 6 11 7 9 13 13 14 17 18 9 7 12 13 15 16 17 21 24 26 27 29 32 32 30 27 28 30 30 29 29 30 30 30 29 28 28 26 24 23 22 22 22 21 20 21 22 22 22 22 21 19 19 19 16 14 12 10 7 5 4 4 5 5 6 8 11 13
3 3 7 8 7 6 6 6 6 4 2 3 3 5 7 4 8 13 6 5 10 6 6 8 10 14 17 17 8 4 8 12 18 19 20 25 26 28 29 30 32 31 29 27 27 30 30 30 30 30 32 32 31 30 30 28 25 23 23 23 23 23 23 23 24 24 24 23 20 18 18 19 16 15 13 10 8 6 4 3 3 4 7 9 10 11
4 6 11 9 5 4 5 5 3 3 3 3 2 2 6 3 5 11 6 1 7 5 3 4 7 12 15 13 9 9 12 17 23 25 26 28 27 28 31 32 33 30 28 28 28 29 30 30 31 32 34 34 33 32 31 29 26 25 24 24 24 24 25 25 25 25 24 23 21 18 17 17 16 15 13 12 10 8 5 4 4 5 7 7 8 9
3 7 7 3 1 0 2 2 2 2 2 3 3 2 6 4 1 5 5 3 2 3 1 3 4 7 9 8 10 16 19 22 25 24 26 26 27 31 32 33 33 31 29 29 29 30 30 30 31 32 34 35 34 34 33 31 29 27 26 26 26 26 27 26 26 27 26 24 23 20 18 16 15 15 14 14 13 10 7 6 5 6 6 6 6 6
7 11 5 3 1 1 3 6 1 2 4 4 6 5 7 7 4 7 4 5 3 3 0 3 3 5 6 5 9 11 10 17 21 17 20 24 27 29 29 30 32 32 31 30 30 31 31 32 32 32 32 33 35 36 36 34 31 29 27 27 27 27 28 28 27 28 29 27 26 25 22 20 19 18 18 17 15 12 9 7 5 5 5 4 4 4
9 12 6 3 6 2 3 7 2 4 3 4 5 10 10 9 8 8 3 5 4 5 3 2 3 5 6 4 9 7 4 9 11 9 17 22 23 25 26 28 29 30 31 31 32 32 32 32 32 33 32 32 34 36 37 35 32 30 29 28 29 29 30 30 29 30 31 31 29 28 27 25 24 23 21 17 14 11 8 7 5 5 4 3 2 2
5 7 2 4 5 1 1 4 5 6 2 3 5 8 8 7 7 8 2 4 1 4 4 2 4 4 7 6 8 7 7 10 7 6 14 15 18 24 27 26 26 27 28 30 32 32 33 33 33 34 34 33 33 35 37 36 34 33 31 31 30 31 32 32 31 32 33 33 31 30 28 25 23 21 20 17 14 11 8 7 5 5 3 2 2 2
3 3 1 2 2 2 1 4 6 7 6 4 5 2 1 4 6 7 2 3 3 2 5 4 4 1 5 7 7 6 7 10 10 8 11 11 15 21 22 22 22 25 27 29 32 33 35 35 35 35 35 34 33 34 36 37 36 35 34 33 31 32 33 33 33 34 35 35 33 31 29 26 22 19 17 17 15 13 10 7 5 4 3 2 2 1
2 2 3 3 2 2 4 5 7 7 3 8 5 4 3 3 4 4 2 2 1 1 5 4 2 2 5 7 6 6 5 8 11 9 9 13 14 14 15 17 20 23 25 27 30 32 34 36 36 35 35 35 34 34 35 37 37 36 35 34 33 33 34 34 34 35 36 36 34 33 31 28 24 20 18 17 16 14 10 8 5 4 3 3 2 1
3 5 5 4 3 4 7 7 8 8 4 5 1 4 3 3 2 2 1 1 2 3 4 6 2 1 4 6 6 5 5 6 9 9 8 11 12 10 13 15 17 20 23 25 28 30 31 33 33 34 35 36 36 35 35 37 37 37 36 36 35 35 35 36 35 36 37 37 36 34 32 30 27 24 22 19 17 15 11 9 6 4 4 3 2 2
6 6 3 3 6 7 6 5 6 9 6 2 2 3 4 5 4 4 3 2 2 3 5 7 2 2 3 6 3 2 4 6 8 9 8 9 8 6 8 10 13 16 20 23 25 27 29 30 32 34 36 36 36 36 36 37 38 39 39 37 37 36 36 37 37 37 38 38 37 35 33 30 28 27 26 23 21 17 14 11 7 5 5 4 4 3
7 6 3 4 10 7 2 3 1 3 2 2 2 2 4 6 5 4 5 4 1 4 5 6 3 4 3 5 3 4 7 7 6 8 10 9 5 2 3 6 9 12 16 19 22 24 26 29 32 34 36 37 37 37 37 38 39 40 40 40 39 38 38 38 38 38 39 39 38 36 33 31 29 28 27 25 22 18 15 12 8 6 6 7 7 6
5 6 4 2 6 7 3 2 4 4 4 5 3 4 3 4 4 3 4 2 2 5 4 4 2 3 4 5 5 6 7 7 7 7 8 8 4 2 1 2 4 7 11 14 18 21 24 27 31 33 36 37 37 37 38 39 40 41 42 41 40 40 39 39 38 38 38 39 38 37 35 32 30 28 26 24 20 18 15 12 9 6 7 10 10 9
4 7 5 2 4 6 7 3 3 3 2 4 4 5 3 0 2 2 4 3 4 4 3 3 2 2 3 3 5 5 6 8 9 10 10 9 7 5 3 1 2 6 8 11 14 17 20 23 27 30 33 34 36 36 37 39 40 40 41 42 42 41 40 40 40 39 38 39 38 37 37 34 30 28 27 24 20 17 15 12 11 8 9 11 11 9
1 6 4 2 2 3 7 6 5 3 3 4 5 6 4 4 3 3 3 3 4 3 3 5 2 1 1 2 4 4 4 9 13 14 16 18 16 12 7 5 1 4 7 9 12 14 17 19 23 27 29 31 33 34 36 38 39 40 42 43 42 41 42 43 42 42 43 42 39 37 38 36 32 29 27 24 20 17 15 13 13 11 11 11 9 9
1 5 8 4 2 6 5 5 5 6 1 3 3 5 2 4 5 2 3 4 2 1 3 4 2 3 3 4 3 2 2 9 14 15 19 19 18 19 16 13 9 6 6 7 9 11 14 16 20 23 25 28 29 31 34 36 38 40 42 43 43 42 45 46 46 47 47 45 41 37 38 38 34 30 27 25 21 17 15 14 13 13 13 11 9 8
1 5 7 4 3 6 6 5 5 5 2 1 2 3 4 4 6 3 1 1 4 1 4 1 2 5 3 2 2 0 1 6 10 11 15 16 16 20 20 16 15 14 13 11 9 8 9 12 15 18 21 24 25 28 30 33 37 38 39 42 42 43 45 47 48 49 49 48 44 38 36 38 35 30 28 26 23 19 17 16 13 13 13 11 10 8
2 5 7 3 5 7 4 3 2 2 5 4 2 5 3 2 4 4 0 3 4 0 4 2 2 5 2 1 3 6 6 6 7 7 11 14 17 18 16 14 15 15 16 15 14 12 8 8 10 13 17 20 22 24 26 29 32 32 33 35 37 42 46 50 54 55 51 47 45 38 35 38 37 32 29 26 24 21 19 18 15 14 14 12 10 7
4 3 7 3 4 5 2 4 4 4 2 3 4 3 3 2 0 1 1 1 1 1 4 4 3 3 3 3 3 5 5 5 6 6 8 11 12 11 10 12 14 15 15 15 15 14 10 6 5 7 11 15 18 20 22 25 28 28 28 28 34 35 24 26 39 53 53 44 43 40 35 37 38 33 31 28 25 22 19 17 15 15 15 13 11 8
4 1 6 5 3 3 5 4 2 3 3 1 1 1 2 3 4 2 2 2 1 1 2 3 4 3 5 5 3 3 5 0 3 4 5 6 6 6 8 11 13 14 15 15 15 13 8 6 4 3 5 9 13 15 18 21 23 25 25 27 33 22 9 23 6 29 42 37 37 37 35 37 38 34 31 28 24 20 16 14 14 14 15 14 12 9
2 2 4 6 4 3 3 1 2 3 2 1 1 1 2 1 1 1 1 2 2 3 2 1 3 5 6 4 5 6 4 3 5 3 3 2 2 3 6 9 11 11 12 14 14 12 8 5 4 3 4 6 9 12 15 18 18 22 24 27 32 19 9 18 16 19 23 25 31 37 38 39 38 33 28 25 21 17 13 13 14 15 16 15 12 10
2 3 3 4 5 3 6 5 3 4 5 5 3 3 3 1 1 1 3 3 1 3 4 4 2 7 5 3 5 6 3 5 6 6 5 2 2 3 5 7 8 9 10 12 13 11 7 5 4 3 4 5 7 10 13 15 17 21 20 19 25 20 6 16 18 19 21 23 33 41 41 39 36 31 27 23 20 16 14 15 17 18 18 16 13 11
4 4 2 4 4 6 9 7 2 3 5 5 2 2 4 3 3 4 3 3 1 2 2 4 1 6 5 3 4 3 2 6 8 8 6 4 2 2 4 5 6 8 10 11 11 9 7 6 5 4 5 6 6 8 11 13 16 17 12 6 11 14 12 18 23 24 22 25 34 41 39 35 32 27 24 22 19 16 17 19 19 19 19 17 14 13
3 3 1 3 5 6 8 5 2 1 4 3 1 1 3 2 3 5 5 3 3 3 2 2 2 5 5 4 2 3 5 7 6 5 6 5 2 0 2 4 6 8 9 11 11 9 7 6 6 5 5 5 6 7 9 11 12 11 7 5 1 10 16 19 23 23 19 22 31 36 34 31 26 23 22 20 18 18 20 20 19 20 19 17 15 15
3 2 3 1 4 6 7 6 6 5 3 1 3 3 2 3 5 4 2 2 1 4 4 4 3 6 5 4 4 6 6 5 2 2 4 4 3 2 0 2 5 7 9 10 10 8 7 7 7 7 6 5 5 5 6 7 6 3 1 2 3 9 13 17 23 24 19 20 26 30 30 27 25 24 23 19 17 19 20 20 20 20 19 17 16 16
4 2 4 3 1 1 2 2 2 4 3 1 3 5 1 3 5 3 2 3 2 3 4 4 4 4 4 2 3 3 4 3 1 2 2 1 3 4 2 2 4 7 9 9 9 8 8 8 8 8 8 6 3 3 5 6 5 4 2 1 2 5 10 15 21 22 19 19 23 27 26 25 25 25 22 18 18 19 20 20 20 19 19 17 16 16
3 3 3 6 6 6 5 6 5 2 2 3 6 6 2 1 4 5 4 2 4 3 1 4 5 4 3 2 2 2 3 3 3 4 4 4 4 4 3 1 3 6 6 5 6 7 8 8 8 8 8 6 6 6 4 4 5 5 2 1 1 4 9 15 18 19 18 18 21 22 22 24 24 22 19 18 18 19 20 21 20 18 17 16 15 17
4 4 1 4 4 6 7 6 4 1 3 5 6 7 5 1 4 6 4 4 4 5 2 6 5 6 6 6 5 5 4 4 6 7 8 7 6 5 4 1 2 3 3 2 4 7 8 7 7 7 8 8 9 8 5 3 3 4 4 5 6 7 10 14 18 19 17 17 18 19 20 22 23 20 18 19 19 19 21 21 18 15 15 15 15 16
6 2 1 2 2 3 4 5 4 2 4 4 4 7 7 1 5 6 3 4 4 5 4 6 6 5 5 5 6 8 9 9 11 12 10 8 7 7 5 3 3 2 1 2 3 5 6 6 5 6 7 7 7 7 6 6 4 3 5 9 9 9 10 12 16 17 16 16 18 19 20 22 21 19 19 20 19 19 20 19 16 14 14 15 15 16
4 1 2 2 3 4 2 4 4 3 3 3 4 5 4 1 5 6 3 2 4 5 3 4 6 4 5 5 5 8 12 12 12 13 11 9 9 8 6 6 6 4 2 3 3 3 4 4 4 5 6 7 7 8 10 9 5 4 6 9 10 10 11 12 13 14 15 16 18 20 22 23 20 18 19 19 18 19 19 18 16 14 15 15 15 17
3 1 2 2 3 5 6 3 4 3 1 1 4 5 5 5 5 5 2 2 4 4 3 6 4 3 5 3 4 7 11 12 11 12 12 11 9 8 8 9 8 6 4 4 5 4 3 2 3 3 5 7 8 10 12 10 7 6 7 8 9 11 12 12 13 15 17 18 19 21 22 22 20 18 19 19 19 19 19 17 15 14 14 15 16 18
4 2 2 4 5 4 7 6 7 5 4 6 7 7 5 3 2 1 1 2 5 5 5 7 2 4 4 3 6 9 12 13 12 13 13 12 11 10 10 10 9 8 5 4 6 6 4 2 2 3 4 5 7 10 12 11 10 9 9 8 9 12 13 13 14 17 17 17 19 20 20 20 19 19 19 20 20 19 18 15 15 15 15 17 17 17
2 3 2 4 3 4 7 5 5 5 7 5 4 2 3 3 0 1 2 2 4 6 6 4 4 5 4 5 6 6 7 9 12 15 14 13 13 13 12 10 9 7 5 4 6 7 6 4 4 5 5 5 7 10 12 13 13 12 11 10 12 14 15 14 15 17 17 17 18 19 19 18 19 20 20 20 19 18 17 15 15 16 17 18 17 15
2 3 1 2 2 4 9 7 5 6 4 4 6 4 5 4 3 4 2 3 4 4 3 3 4 2 4 5 5 6 7 7 11 14 12 10 11 13 11 10 9 7 5 5 7 8 8 7 5 6 6 6 8 10 11 12 14 14 13 13 15 15 15 16 16 16 16 17 18 18 18 18 19 19 19 19 19 18 17 16 16 17 19 18 17 16
2 2 1 1 2 2 6 6 7 3 4 7 6 3 5 6 6 4 1 4 5 3 2 1 4 3 5 4 4 7 8 6 6 10 9 7 8 10 9 8 8 7 7 7 8 9 9 9 7 6 7 7 7 9 9 9 13 16 16 16 17 16 16 16 16 15 15 16 18 18 18 18 19 19 19 19 19 18 17 17 16 17 19 18 16 14
2 1 1 2 1 1 3 4 3 2 7 6 6 5 1 4 5 4 4 6 6 5 3 2 5 3 6 5 4 5 6 5 4 7 7 6 6 7 8 7 6 6 6 6 8 8 9 9 8 6 6 7 7 7 8 8 13 18 19 18 18 17 16 16 16 15 15 17 18 18 18 18 18 19 19 19 19 18 17 16 14 14 17 17 15 13
4 2 1 0 0 2 2 2 2 4 5 4 3 3 3 2 3 5 1 6 7 6 7 5 2 4 7 6 5 7 6 3 1 4 7 7 7 8 7 6 5 5 5 6 7 8 8 9 9 7 7 8 7 7 8 10 15 19 19 19 19 18 17 16 15 16 16 17 18 17 17 17 17 18 19 19 19 17 16 16 13 12 14 16 16 14
4 3 4 3 1 2 4 2 3 3 3 4 7 6 1 2 5 7 3 5 7 7 10 7 4 6 8 8 8 8 7 2 3 4 10 10 10 10 9 7 7 6 6 8 9 9 9 10 10 8 9 10 9 8 9 13 16 18 17 18 19 18 17 16 15 15 15 15 15 15 15 15 15 17 18 17 17 16 16 16 14 13 13 15 16 14
5 2 3 4 1 1 5 2 1 2 4 7 8 6 3 4 7 6 5 6 7 9 14 10 7 10 11 12 13 10 7 2 4 5 10 13 12 11 9 8 7 7 8 9 8 9 10 11 11 9 11 13 11 9 11 14 16 16 16 17 18 17 17 17 15 15 14 14 13 13 14 14 14 14 15 15 15 15 15 16 16 15 14 14 14 13
4 3 3 3 2 2 4 2 2 4 5 6 8 8 2 7 9 8 3 8 7 11 17 14 11 13 13 15 15 9 5 4 2 2 10 14 12 9 8 6 6 6 9 10 9 9 10 10 10 10 12 14 13 10 13 15 15 15 16 16 17 18 18 17 16 14 13 13 13 13 14 13 13 13 13 13 14 14 15 17 17 17 16 16 15 13
2 2 1 3 3 4 4 3 2 4 6 7 8 8 7 10 7 4 5 8 5 13 18 15 14 15 15 17 16 10 8 6 1 1 10 13 11 9 8 6 5 6 8 11 11 10 10 10 9 9 11 15 14 11 13 16 16 15 16 16 17 18 18 17 16 15 13 13 14 14 13 13 12 12 12 12 13 14 16 18 18 17 17 17 17 15
1 1 1 2 3 3 4 3 1 5 6 4 3 5 9 9 3 5 8 5 5 15 19 15 14 15 15 18 18 12 9 7 2 3 9 11 10 9 7 6 7 8 9 11 11 11 11 10 9 9 11 14 15 12 12 17 18 16 15 16 17 17 18 17 16 15 14 14 14 14 13 13 12 12 12 12 13 14 16 18 18 18 18 18 18 16
2 1 2 1 2 1 2 2 2 2 4 1 6 5 5 5 4 6 5 3 6 16 19 15 14 14 14 18 19 12 6 5 5 5 8 9 9 7 6 6 6 7 9 10 11 12 12 11 9 9 10 12 15 13 11 15 19 17 15 16 17 17 17 17 16 16 15 15 15 14 14 13 12 12 12 12 12 13 14 16 17 18 18 18 18 16
1 0 0 2 2 1 2 1 3 3 10 12 5 4 9 10 5 3 2 5 9 15 19 17 14 13 13 16 18 14 8 5 6 7 7 9 9 7 7 7 7 7 7 8 10 12 12 11 10 9 9 11 14 14 12 13 17 18 16 16 17 18 18 18 17 17 16 16 16 15 14 14 13 12 12 12 12 12 13 14 15 16 18 18 17 16
1 2 3 4 3 2 4 6 9 14 19 19 15 16 17 15 9 4 3 7 11 15 18 16 14 13 13 15 16 15 10 7 7 7 7 8 8 7 8 8 7 7 7 8 10 11 11 11 10 8 9 12 13 13 12 12 15 18 17 17 18 19 19 18 18 17 16 16 15 15 15 14 14 13 13 13 12 12 13 14 15 16 17 18 18 17
0 2 0 3 3 4 6 7 13 23 25 19 13 12 16 16 12 8 6 5 9 15 15 13 12 12 12 14 15 13 10 8 7 7 7 8 8 8 9 9 8 8 7 8 10 11 10 11 11 9 10 12 14 15 14 13 14 17 17 17 19 19 18 18 17 16 15 14 14 14 14 14 15 14 13 12 11 11 11 12 13 15 17 18 19 18
2 5 4 1 0 3 3 4 15 25 22 14 16 14 12 12 8 5 6 4 7 11 12 10 9 9 10 11 12 10 8 7 7 7 8 8 9 9 10 9 8 8 7 8 10 10 10 10 10 10 11 13 15 16 15 14 15 16 17 17 18 18 18 18 17 15 14 13 13 14 14 15 15 14 14 13 12 11 11 11 11 13 15 17 18 19
3 7 6 2 2 3 5 8 27 28 12 7 18 21 19 17 10 3 1 2 5 8 8 6 5 6 8 9 9 8 7 6 7 8 8 9 9 9 10 9 8 8 8 9 9 9 9 9 7 8 11 14 16 17 16 15 15 17 18 18 18 18 18 17 16 15 14 13 13 14 15 15 15 15 15 14 13 12 11 10 10 10 11 13 15 17
5 7 3 0 4 4 4 11 30 27 12 14 26 27 24 20 11 4 4 0 5 6 6 5 3 4 6 7 8 7 5 6 7 7 7 9 9 9 9 9 9 9 8 9 9 7 7 6 5 4 7 13 16 17 16 16 16 17 18 18 19 19 19 17 16 16 15 14 14 15 16 17 17 16 15 14 13 12 10 10 9 7 6 7 9 12
4 3 1 2 4 3 2 9 19 14 8 21 35 35 31 26 14 6 4 2 2 3 3 4 4 4 6 7 7 5 4 4 6 6 7 8 9 9 9 10 10 10 8 9 9 7 7 6 6 5 5 8 12 15 16 16 16 17 18 19 20 19 18 17 16 17 16 15 15 17 18 17 17 16 15 14 13 12 10 10 10 9 7 6 6 7
3 1 3 3 1 2 5 13 19 14 13 24 36 35 27 23 18 11 6 4 2 1 1 1 2 4 7 8 7 4 3 3 4 6 7 8 8 9 9 9 9 9 9 10 10 9 8 8 8 7 6 5 7 12 15 16 17 17 18 20 20 19 17 16 17 18 18 16 17 18 18 17 16 15 14 13 12 12 11 10 10 9 8 7 7 7
Wind_Direction
307 299 269 240 234 224 214 190 200 229 216 255 286 292 265 270 284 276 272 205 169 175 231 220 229 246 257 267 261 228 222 212 215 214 209 211 210 210 210 212 216 221 228 228 225 223 224 227 228 229 232 233 234 231 227 225 223 221 220 220 218 212 210 212 211 210 207 205 203 201 201 202 202 204 207 207 213 234 274 307 313 311 303 297 299 301
332 292 256 243 235 207 198 204 223 262 269 268 279 295 283 250 268 280 281 202 170 177 244 214 225 251 253 263 281 226 216 222 218 212 213 214 212 213 214 217 220 222 225 224 225 226 225 227 228 230 232 233 234 230 227 227 224 221 221 222 220 214 211 214 215 213 211 210 209 206 204 204 205 206 209 212 216 229 255 274 286 294 291 292 301 304
304 267 258 258 245 189 199 206 217 252 237 248 241 276 287 261 266 288 306 171 172 194 265 178 201 249 257 265 280 242 226 239 234 223 224 221 213 215 216 219 221 220 219 220 224 226 227 229 228 230 232 233 235 233 229 228 224 222 222 223 221 218 216 215 216 215 212 211 210 210 208 206 206 207 209 214 221 228 238 245 261 282 291 299 306 305
268 250 251 256 216 137 289 233 123 338 289 215 212 241 277 280 333 289 315 31 153 201 228 164 201 264 275 279 274 251 237 247 249 237 233 229 223 224 222 221 221 217 216 217 221 225 227 230 229 229 230 231 232 230 228 227 224 222 223 224 222 219 219 218 217 215 212 210 207 207 209 209 208 210 210 212 218 223 227 235 257 282 295 304 307 304
252 255 256 25 353 143 296 293 31 340 294 225 205 208 250 267 236 232 274 28 9 311 88 81 17 304 287 285 273 267 246 250 257 246 236 233 232 233 229 225 223 221 218 216 220 223 225 229 231 231 230 229 230 229 227 227 226 225 226 226 222 220 220 220 218 214 210 207 204 202 203 206 207 208 210 211 215 219 222 231 252 280 293 300 303 303
259 264 258 286 277 194 225 278 227 186 264 293 219 204 222 247 251 253 292 63 44 314 281 79 38 296 303 293 263 287 328 267 264 248 238 233 229 233 230 226 225 223 221 221 225 227 226 228 231 231 230 228 228 229 228 229 229 229 229 227 223 220 219 220 219 215 211 209 206 203 201 202 203 204 207 208 212 217 219 228 251 275 284 292 296 292
258 273 224 204 250 171 167 268 229 178 131 313 236 193 204 225 253 271 258 127 145 293 295 80 135 257 312 305 270 298 316 291 294 270 256 246 230 232 233 229 227 223 220 223 227 229 230 229 229 230 229 228 227 228 228 228 229 229 229 227 223 220 219 220 218 215 213 212 211 210 207 206 204 202 202 202 203 207 211 225 247 268 270 257 266 266
230 291 20 127 129 110 179 263 232 160 118 255 252 100 303 269 263 262 217 171 216 248 337 6 123 171 303 286 290 322 317 308 314 301 288 278 250 242 240 236 231 227 225 224 226 228 230 231 231 232 231 229 228 227 227 227 228 227 227 227 224 221 219 220 219 216 215 215 213 212 211 210 208 204 200 197 198 198 203 218 232 250 251 223 225 233
205 214 223 181 127 156 220 227 195 148 130 255 265 43 357 297 271 262 245 238 237 41 331 309 154 158 275 280 316 344 338 323 318 309 303 297 279 257 248 244 237 234 233 233 232 231 232 233 235 236 234 232 229 227 228 227 227 226 226 226 225 223 220 220 220 218 217 217 216 214 212 210 207 204 202 199 197 195 198 205 213 224 219 206 210 197
239 224 221 175 168 223 233 221 172 157 204 250 276 50 43 40 34 31 57 217 26 19 280 252 194 161 267 296 338 3 356 324 309 300 295 307 300 258 239 240 237 238 238 238 239 238 237 238 239 238 235 232 231 230 229 228 227 226 225 225 225 223 221 220 221 220 218 218 217 217 215 212 206 200 200 201 198 196 196 194 196 200 192 190 194 176
270 268 262 193 212 226 239 236 175 182 217 259 16 346 357 8 16 29 37 78 39 324 260 249 217 123 270 295 321 327 303 290 296 302 311 333 323 253 233 234 232 238 242 241 242 241 239 239 237 235 234 234 232 231 229 228 227 225 224 225 224 223 221 220 221 221 219 218 218 219 218 215 210 203 199 197 197 198 194 186 182 178 170 171 169 151
314 299 272 234 231 226 250 287 220 189 199 87 53 24 353 334 354 5 353 32 19 267 261 260 224 146 214 275 286 279 277 279 291 299 308 321 316 257 236 235 234 243 247 246 245 242 238 234 232 231 232 232 231 231 230 228 226 225 225 224 223 221 220 219 220 221 220 219 218 219 218 217 216 212 205 199 196 195 190 180 168 163 158 153 145 131
318 267 269 295 244 208 175 307 324 359 63 107 117 80 41 317 352 347 314 336 253 250 264 285 259 173 221 250 267 289 307 319 330 330 321 318 322 14 13 250 248 254 254 253 249 244 239 234 232 231 231 230 231 232 232 230 228 226 225 223 221 220 218 217 218 220 221 221 220 219 218 216 217 218 215 208 201 193 188 175 152 143 145 141 131 118
312 297 312 343 261 209 165 168 282 307 84 136 154 131 142 145 47 310 287 299 282 264 267 297 305 277 288 260 233 269 318 346 7 24 34 38 47 52 37 7 263 262 265 263 256 249 245 241 237 234 232 231 233 234 235 233 230 226 223 221 220 220 219 218 217 218 219 220 222 223 220 217 215 217 216 213 207 197 188 167 140 131 139 138 123 103
275 307 282 194 234 179 169 192 197 164 144 179 168 137 149 152 157 244 246 236 272 281 285 310 317 204 250 255 228 255 321 24 35 42 54 57 61 67 64 58 1 286 283 273 265 260 255 249 243 237 233 233 236 238 238 236 232 226 222 221 221 223 222 219 218 217 215 213 215 220 223 221 215 214 214 211 208 201 185 160 139 136 143 142 121 96
121 268 252 251 222 163 185 215 157 118 111 240 144 111 159 177 160 198 195 183 206 312 292 303 277 210 213 253 256 248 329 38 37 36 47 49 55 62 59 50 38 11 341 308 287 275 264 254 245 239 235 236 240 242 242 241 235 228 226 227 227 227 224 221 220 218 214 210 207 209 219 222 216 212 213 208 203 198 181 160 143 140 147 142 118 94
104 270 269 303 279 209 215 218 167 159 185 208 123 168 224 181 131 125 247 1 66 53 280 288 272 299 331 267 257 87 34 40 31 28 40 42 46 52 47 40 33 27 20 8 351 322 288 266 254 245 241 243 246 248 249 247 240 232 231 231 228 229 228 224 221 216 212 210 206 202 208 217 216 211 211 206 199 195 181 164 150 146 149 141 120 98
160 274 280 294 280 261 230 178 162 171 143 121 195 215 209 105 90 99 167 348 40 225 281 332 280 303 6 245 318 11 14 21 19 16 34 36 39 42 38 31 26 24 24 22 19 9 343 301 275 254 245 249 254 256 255 249 240 233 230 230 231 232 230 230 226 213 206 208 207 201 201 210 214 211 208 204 197 192 180 165 152 145 146 142 131 114
150 268 290 255 240 288 6 80 28 348 67 140 190 175 113 124 117 43 136 244 1 261 289 323 305 270 200 226 330 360 338 352 12 15 31 31 30 28 25 24 20 17 19 23 28 26 11 343 307 263 252 256 258 257 253 247 242 235 232 233 235 233 237 259 239 207 197 205 206 202 202 205 210 209 204 200 194 188 178 165 151 143 146 145 141 132
136 151 292 267 225 314 2 51 40 318 330 10 130 77 27 142 159 154 146 167 192 216 265 310 325 288 228 219 195 244 269 338 64 39 42 35 19 10 18 22 14 10 13 18 31 36 25 3 344 293 267 258 253 253 248 248 246 240 239 238 237 240 13 11 338 177 184 204 207 204 204 205 209 206 199 194 189 185 177 164 153 145 145 146 145 142
109 133 258 281 316 355 332 341 149 175 167 80 6 295 313 344 168 218 71 100 136 155 184 249 302 275 253 218 194 228 245 153 135 116 99 73 27 8 21 24 11 8 13 18 30 39 33 15 358 329 295 261 250 251 247 250 251 242 240 236 235 243 54 63 76 120 163 198 206 205 205 205 204 198 193 189 184 184 176 161 151 144 144 150 153 148
157 159 205 290 333 320 261 250 182 167 169 164 173 196 199 192 187 247 311 321 102 131 164 166 232 269 262 209 210 233 213 158 148 134 131 118 68 31 23 22 7 5 12 20 32 38 33 23 14 347 314 285 258 253 251 252 249 239 234 229 232 236 152 123 131 137 159 188 202 205 205 203 197 187 184 181 176 175 167 153 146 141 147 159 161 150
144 119 154 265 273 257 263 265 211 186 177 156 138 149 156 141 129 152 229 266 120 110 145 139 199 270 265 242 249 263 156 149 147 135 129 111 80 38 19 15 5 6 11 20 32 33 23 19 20 6 333 314 281 264 261 253 246 239 239 254 239 219 168 147 156 164 177 193 198 200 201 198 189 179 175 174 167 159 150 145 141 140 153 168 166 147
128 109 112 280 292 300 300 313 357 89 118 102 1 99 143 161 145 153 183 186 146 163 152 115 257 267 278 307 350 65 103 129 142 137 130 124 121 55 18 20 13 14 12 18 30 25 9 8 9 5 349 329 304 285 278 263 254 254 272 324 295 177 169 167 170 175 190 196 193 194 194 187 178 169 167 166 161 150 142 139 138 144 160 174 167 146
165 145 114 21 331 339 340 348 355 354 31 73 270 263 181 148 113 108 145 115 155 209 150 130 235 256 279 330 53 93 108 117 141 149 136 137 163 200 154 56 26 13 7 12 26 23 5 3 5 14 28 17 347 323 311 293 284 297 333 25 101 160 181 188 185 187 193 194 191 190 184 175 168 163 161 161 155 146 140 138 140 151 167 175 164 146
155 126 124 128 187 241 311 299 285 305 325 322 274 280 276 147 138 133 133 116 212 227 135 140 214 255 281 333 64 106 116 114 184 187 141 161 199 209 198 89 33 7 1 4 19 20 6 4 10 23 35 35 39 27 356 347 4 32 79 118 108 162 184 190 192 194 192 190 190 183 173 167 163 156 157 161 154 144 140 140 146 157 167 168 159 148
116 53 125 143 161 180 197 221 225 247 305 300 289 289 310 139 153 128 109 151 191 165 156 219 190 166 212 207 133 202 182 165 214 198 177 203 213 215 218 121 22 3 1 4 21 26 16 11 16 31 48 77 107 97 44 9 14 15 0 328 33 145 173 185 192 196 195 192 190 179 166 161 157 151 155 158 150 144 143 144 151 159 164 164 160 153
104 32 50 148 179 201 196 220 242 230 236 251 270 285 313 33 137 121 133 209 166 112 301 259 184 155 200 199 180 204 208 203 214 202 195 205 209 211 227 274 340 353 4 25 42 40 36 33 27 39 65 93 105 101 88 68 38 7 17 52 80 123 158 177 187 193 196 194 187 175 162 158 154 150 153 153 148 148 147 147 154 161 163 167 167 157
117 31 305 160 296 259 203 238 268 231 232 249 269 284 300 254 150 130 163 219 141 121 226 227 167 166 219 208 190 201 203 198 201 204 203 203 204 210 225 252 268 281 15 97 81 55 53 56 47 55 85 102 105 100 99 92 69 39 59 77 91 116 139 160 177 184 186 182 174 166 160 158 155 151 151 150 148 149 148 152 159 163 167 173 170 159
118 356 269 179 345 327 282 265 280 270 257 296 316 299 315 115 138 115 137 208 111 113 176 156 149 208 240 209 199 207 204 196 193 200 204 203 206 213 225 242 246 235 194 153 136 96 72 63 46 59 97 117 120 108 103 102 96 89 88 86 94 110 121 136 152 160 163 161 158 157 158 159 158 155 152 150 149 150 152 158 162 163 167 170 165 160
81 18 283 110 59 321 311 318 324 311 221 85 2 352 27 61 79 82 119 169 102 84 68 89 108 277 269 181 146 165 176 173 176 193 204 209 211 216 230 241 241 233 211 172 163 153 118 74 39 49 95 118 125 118 111 110 113 122 118 103 101 108 113 121 129 133 140 146 148 153 158 160 160 157 153 152 152 153 157 161 163 163 165 165 161 161
38 25 341 61 65 301 306 343 346 347 60 64 19 0 5 29 80 92 246 183 138 126 88 80 98 264 255 146 119 134 150 155 169 190 204 213 215 221 235 242 239 235 224 181 170 167 154 124 82 80 92 109 123 123 121 123 128 136 136 124 116 116 117 124 129 131 139 145 148 153 157 159 160 156 155 154 154 157 161 163 164 166 166 163 163 165
55 48 14 56 69 280 294 332 353 22 44 19 329 304 289 300 170 144 296 264 167 144 125 137 205 234 216 165 130 132 150 162 178 190 202 215 217 219 232 242 242 237 226 189 170 163 168 171 132 115 110 106 117 122 124 130 137 145 146 135 128 127 128 134 138 139 144 149 153 157 158 159 158 157 156 155 155 161 165 166 168 170 166 164 166 170
85 80 71 96 100 281 296 327 24 45 37 267 250 215 213 233 185 170 223 244 204 163 132 180 210 201 189 178 157 163 178 182 190 197 208 224 225 221 223 232 238 238 220 187 165 161 177 188 168 140 129 113 111 119 125 135 144 150 150 141 135 134 137 142 144 144 146 151 156 159 159 157 158 158 158 158 162 167 168 169 172 172 168 167 171 175
72 80 106 104 89 287 310 5 50 49 248 248 281 285 210 184 157 154 318 295 231 196 94 298 263 221 178 168 157 169 178 176 184 198 208 220 223 219 217 217 224 228 215 190 169 167 182 193 190 166 144 131 123 125 129 137 148 153 151 147 143 141 144 149 150 150 151 156 158 158 158 158 159 161 162 164 170 172 170 170 173 174 175 176 178 184
197 202 136 92 71 13 356 27 71 254 263 277 325 327 207 142 124 108 355 306 250 202 164 238 261 205 144 138 139 153 165 166 165 186 201 207 205 207 211 210 204 205 206 190 174 175 184 191 195 184 158 148 144 143 141 143 152 154 153 151 149 147 150 155 158 157 157 159 160 160 161 162 162 164 168 171 174 173 171 173 174 177 182 184 187 193
164 159 145 138 265 124 83 318 289 315 323 325 309 254 189 149 150 144 183 276 249 195 175 189 207 142 131 136 145 143 148 150 159 209 207 203 197 196 203 205 193 184 180 171 173 182 185 186 191 189 173 163 162 163 159 154 156 156 153 154 155 154 157 162 164 162 161 162 164 165 165 165 166 170 174 175 176 176 178 180 180 180 186 191 195 199
128 174 187 188 242 110 98 17 341 5 333 271 255 253 223 145 158 138 112 293 269 211 191 182 164 153 139 134 143 139 129 106 321 245 207 200 199 196 195 198 195 186 176 171 177 184 182 181 187 188 176 169 171 180 175 163 161 160 157 157 159 160 161 165 165 164 164 165 168 169 170 172 175 177 179 179 180 182 184 187 188 188 189 195 202 206
80 65 122 125 154 125 112 105 175 193 248 248 248 282 349 144 151 104 49 306 268 204 189 184 170 168 158 152 154 140 121 155 277 243 199 195 198 196 195 200 198 189 183 183 187 189 182 179 184 186 179 174 177 186 183 173 167 168 166 162 163 164 164 165 167 167 168 170 173 175 179 183 185 186 185 185 186 189 191 192 193 193 193 197 204 210
56 40 86 127 183 169 133 142 216 229 252 247 251 280 281 145 124 81 40 276 253 183 181 188 183 179 173 163 158 146 146 187 260 241 191 190 194 194 192 202 209 197 187 184 188 190 185 182 186 189 182 179 182 187 186 180 175 174 173 169 167 168 166 166 168 170 173 177 180 183 188 190 192 193 193 194 195 195 196 197 197 198 199 201 205 211
15 18 107 149 169 170 165 185 248 251 245 248 259 251 181 138 100 92 198 247 233 170 179 194 194 187 181 171 169 180 194 187 88 159 184 188 195 195 189 188 194 191 185 184 186 186 183 182 189 193 185 180 185 190 188 185 183 179 179 177 171 168 166 166 171 175 180 184 184 185 189 191 193 197 200 203 203 201 199 201 203 205 206 209 212 216
349 1 40 138 155 155 160 167 275 280 258 229 201 189 158 136 132 213 212 252 227 178 179 193 199 195 191 187 188 198 204 197 190 181 185 191 200 201 196 187 182 179 179 182 185 184 182 180 183 193 190 183 186 194 192 188 188 185 182 181 175 169 168 169 173 180 184 185 184 184 187 188 190 195 201 205 206 204 202 204 209 213 216 218 220 220
208 242 316 251 195 142 60 77 136 248 290 61 113 134 168 176 208 226 220 243 208 182 178 188 202 203 199 198 197 195 192 192 193 188 188 193 199 201 199 192 188 185 182 183 185 184 182 180 181 192 198 190 190 198 198 193 192 189 185 183 178 172 172 174 178 183 186 185 185 186 188 189 190 194 201 208 211 211 212 213 215 218 220 221 221 222
239 131 212 263 264 115 89 131 183 246 317 329 326 243 224 215 227 288 228 180 172 176 180 187 201 208 206 203 200 194 189 189 192 193 193 193 194 196 191 183 180 182 183 186 187 183 182 185 186 194 205 201 198 202 207 202 196 191 185 183 180 176 176 179 181 183 185 186 187 190 192 193 196 200 207 214 218 221 224 226 225 223 222 222 224 228
183 140 183 229 262 196 205 251 283 307 322 324 308 282 267 257 261 281 233 187 174 179 185 189 196 203 208 207 203 200 202 205 199 196 196 194 192 188 181 176 174 175 180 186 187 185 185 190 194 202 211 209 204 206 214 214 204 194 186 182 182 180 179 182 184 185 186 187 189 192 194 196 199 204 208 213 219 221 224 228 230 228 226 226 227 231
312 32 343 225 243 267 258 273 312 321 324 334 334 305 289 282 266 236 219 207 186 183 186 192 198 202 204 204 203 203 206 210 206 200 197 192 186 180 176 174 172 173 179 185 186 187 188 194 202 212 216 211 205 206 215 220 210 198 189 184 182 182 183 185 188 188 188 188 190 193 197 199 200 201 202 204 209 213 217 225 231 232 231 231 231 232
338 4 347 252 325 337 284 312 339 327 317 340 13 10 355 341 315 229 200 206 195 184 183 193 206 207 200 198 200 201 203 207 211 210 202 191 184 182 179 176 174 173 177 184 185 186 190 198 210 222 221 211 204 202 211 218 211 199 192 187 185 187 189 191 193 193 192 193 194 195 196 196 195 194 195 195 198 202 206 215 227 234 237 238 238 238
333 352 341 291 332 317 228 312 340 338 328 11 19 15 14 9 3 358 184 181 170 168 176 187 204 205 195 189 190 196 203 207 213 218 209 194 188 187 182 178 175 170 170 177 181 186 192 197 209 223 217 205 199 199 205 211 209 199 193 190 189 192 195 197 198 198 198 198 197 193 191 191 191 192 195 197 198 201 203 207 217 231 240 245 245 243
284 317 315 155 343 310 242 333 348 354 1 354 351 352 355 357 359 7 351 312 150 151 168 169 157 184 192 185 186 196 208 207 207 216 214 198 191 189 184 180 178 174 171 171 171 177 187 183 172 186 197 195 196 199 202 205 206 200 193 191 193 196 200 201 201 202 204 203 198 192 190 192 195 197 200 201 201 204 209 213 218 230 245 251 248 244
272 285 268 74 24 340 277 341 352 354 317 316 326 331 335 338 341 344 329 294 166 145 163 160 151 176 192 191 192 202 212 202 196 205 210 202 192 188 186 183 181 179 172 166 166 170 174 171 160 152 161 181 194 199 200 201 202 198 193 192 193 197 202 206 206 206 206 203 197 192 192 195 199 203 205 204 204 208 216 222 227 235 241 240 239 241
240 158 102 85 101 259 310 332 337 328 294 305 321 329 330 330 332 328 318 305 286 286 271 206 197 192 190 192 195 199 198 190 187 194 200 200 194 191 192 189 186 183 175 170 170 172 169 172 179 179 169 163 180 192 196 197 197 195 193 191 192 197 204 211 213 212 209 204 200 197 197 198 201 205 205 204 207 212 218 224 231 236 237 236 241 249
Height
1524 1530 1533 1533 1531 1530 1529 1528 1528 1527 1529 1531 1533 1535 1534 1534 1529 1517 1514 1511 1510 1520 1521 1516 1516 1513 1506 1498 1496 1500 1502 1502 1504 1504 1505 1505 1505 1507 1508 1508 1508 1509 1511 1515 1519 1521 1524 1526 1529 1531 1533 1534 1536 1537 1538 1540 1541 1543 1544 1545 1547 1548 1549 1549 1549 1550 1550 1551 1553 1554 1556 1556 1557 1558 1558 1559 1559 1560 1560 1561 1561 1561 1561 1561 1560 1560
1525 1533 1531 1525 1525 1526 1527 1526 1526 1527 1529 1530 1533 1535 1532 1534 1528 1513 1511 1510 1507 1516 1516 1513 1518 1514 1505 1498 1496 1499 1500 1498 1498 1500 1500 1500 1501 1503 1505 1506 1505 1507 1510 1514 1517 1519 1522 1524 1526 1528 1530 1531 1533 1534 1536 1538 1540 1541 1543 1544 1545 1547 1547 1547 1547 1547 1547 1548 1550 1551 1553 1554 1555 1556 1557 1558 1559 1559 1559 1559 1560 1560 1560 1560 1560 1559
1532 1532 1524 1519 1521 1523 1524 1524 1526 1527 1529 1531 1533 1535 1533 1530 1526 1514 1508 1510 1509 1514 1516 1514 1518 1514 1504 1500 1498 1496 1495 1492 1491 1493 1494 1495 1498 1499 1500 1502 1503 1506 1509 1512 1514 1516 1518 1521 1523 1525 1526 1528 1530 1532 1534 1536 1538 1540 1541 1543 1544 1545 1545 1545 1545 1545 1545 1546 1548 1550 1551 1553 1554 1555 1556 1557 1558 1559 1559 1559 1559 1559 1559 1559 1559 1559
1536 1527 1518 1518 1519 1521 1524 1524 1526 1528 1529 1531 1532 1534 1532 1525 1527 1522 1513 1512 1512 1514 1516 1515 1517 1513 1505 1501 1496 1490 1490 1488 1487 1490 1491 1493 1494 1494 1496 1498 1501 1504 1507 1509 1511 1514 1516 1518 1519 1520 1522 1525 1527 1529 1531 1533 1535 1537 1539 1541 1542 1543 1543 1544 1543 1543 1544 1545 1547 1548 1550 1552 1553 1554 1555 1556 1557 1558 1559 1559 1559 1559 1559 1559 1558 1558
1531 1520 1515 1518 1519 1521 1525 1524 1526 1529 1529 1529 1527 1530 1528 1521 1523 1523 1516 1516 1517 1517 1515 1515 1521 1515 1504 1504 1497 1487 1488 1487 1485 1488 1490 1490 1491 1492 1495 1496 1498 1501 1504 1507 1508 1510 1512 1514 1515 1517 1519 1522 1524 1526 1527 1529 1531 1533 1536 1538 1539 1541 1541 1542 1542 1542 1543 1544 1545 1546 1548 1549 1550 1551 1552 1553 1555 1556 1557 1558 1558 1558 1558 1558 1558 1558
1525 1515 1514 1518 1519 1521 1525 1525 1525 1526 1529 1528 1522 1520 1520 1517 1517 1516 1516 1520 1525 1525 1515 1516 1531 1523 1505 1504 1499 1490 1490 1488 1485 1487 1486 1487 1490 1491 1493 1493 1496 1499 1502 1504 1505 1507 1509 1510 1512 1514 1516 1518 1519 1521 1523 1526 1528 1530 1532 1534 1535 1537 1537 1539 1540 1540 1541 1541 1542 1542 1543 1544 1545 1546 1548 1550 1552 1554 1556 1557 1557 1557 1557 1557 1557 1557
1520 1513 1513 1517 1518 1521 1524 1525 1521 1521 1530 1529 1517 1511 1513 1515 1515 1514 1516 1521 1527 1527 1516 1515 1530 1529 1510 1501 1497 1495 1494 1489 1486 1486 1484 1486 1489 1488 1489 1492 1494 1497 1499 1502 1503 1505 1506 1507 1509 1510 1512 1513 1514 1516 1519 1523 1525 1527 1529 1530 1531 1532 1533 1534 1536 1537 1538 1538 1538 1538 1539 1540 1541 1543 1544 1547 1550 1552 1554 1556 1556 1556 1556 1556 1556 1556
1516 1514 1515 1516 1518 1521 1523 1523 1518 1517 1527 1525 1510 1507 1511 1512 1513 1513 1514 1518 1522 1521 1520 1519 1524 1530 1522 1504 1499 1501 1497 1491 1489 1487 1485 1486 1489 1488 1490 1492 1494 1495 1497 1498 1500 1501 1502 1503 1504 1505 1507 1509 1511 1513 1516 1519 1522 1524 1526 1527 1528 1529 1530 1531 1532 1533 1534 1534 1535 1536 1537 1538 1540 1542 1544 1546 1548 1550 1552 1554 1555 1555 1555 1555 1555 1556
1513 1515 1515 1515 1519 1522 1520 1516 1513 1514 1521 1516 1506 1507 1511 1511 1512 1512 1512 1517 1520 1520 1526 1525 1522 1532 1528 1507 1501 1503 1498 1496 1493 1489 1487 1485 1486 1488 1490 1491 1492 1493 1494 1495 1496 1497 1498 1499 1500 1502 1505 1507 1509 1511 1513 1516 1519 1521 1524 1525 1527 1528 1528 1529 1530 1531 1531 1532 1534 1535 1536 1537 1539 1542 1544 1546 1547 1548 1549 1551 1553 1554 1555 1555 1555 1555
1511 1512 1511 1512 1518 1518 1512 1508 1508 1511 1514 1509 1505 1508 1511 1512 1514 1515 1515 1516 1518 1522 1527 1526 1522 1530 1527 1510 1506 1507 1502 1501 1496 1489 1487 1485 1484 1484 1484 1487 1488 1490 1492 1492 1492 1493 1494 1496 1498 1501 1503 1505 1507 1508 1510 1513 1516 1518 1520 1522 1523 1525 1526 1527 1528 1528 1529 1531 1533 1534 1536 1537 1539 1540 1542 1544 1545 1547 1547 1548 1550 1552 1554 1555 1555 1555
1509 1508 1508 1509 1510 1508 1504 1504 1505 1506 1506 1505 1507 1511 1512 1514 1513 1516 1518 1516 1522 1528 1526 1523 1522 1527 1528 1517 1513 1512 1505 1503 1498 1491 1488 1486 1484 1482 1482 1484 1485 1487 1488 1488 1490 1491 1492 1495 1497 1499 1501 1502 1504 1506 1508 1509 1511 1514 1515 1517 1518 1520 1522 1523 1525 1526 1528 1530 1532 1534 1536 1539 1540 1539 1538 1539 1542 1544 1545 1545 1547 1550 1553 1554 1555 1555
1509 1509 1508 1504 1501 1502 1503 1504 1504 1503 1504 1507 1511 1515 1519 1521 1518 1519 1520 1518 1529 1533 1525 1522 1523 1526 1528 1521 1513 1510 1503 1500 1499 1495 1491 1487 1485 1483 1483 1483 1484 1485 1485 1486 1487 1488 1491 1493 1495 1497 1497 1499 1501 1503 1504 1505 1506 1508 1510 1511 1513 1515 1518 1520 1522 1524 1527 1529 1531 1533 1536 1539 1541 1541 1539 1538 1538 1541 1542 1543 1544 1548 1551 1553 1554 1555
1513 1508 1505 1502 1499 1499 1504 1509 1509 1506 1507 1511 1515 1520 1530 1536 1535 1534 1532 1531 1536 1532 1523 1523 1523 1523 1524 1516 1510 1507 1502 1498 1497 1495 1491 1488 1485 1483 1483 1483 1483 1484 1483 1484 1486 1487 1489 1490 1492 1494 1495 1497 1499 1500 1500 1501 1502 1503 1505 1507 1510 1512 1514 1517 1520 1524 1528 1532 1533 1534 1535 1537 1540 1542 1543 1541 1540 1540 1541 1541 1543 1546 1549 1552 1554 1555
1518 1509 1502 1503 1501 1496 1501 1510 1514 1511 1511 1514 1516 1521 1532 1541 1549 1550 1546 1546 1542 1529 1522 1524 1522 1521 1520 1513 1506 1504 1501 1498 1496 1493 1490 1487 1486 1485 1484 1484 1484 1483 1483 1483 1485 1486 1487 1488 1490 1492 1494 1496 1498 1498 1498 1499 1500 1501 1503 1505 1507 1509 1511 1513 1514 1517 1522 1528 1533 1536 1536 1536 1537 1539 1542 1543 1543 1542 1542 1541 1542 1545 1549 1551 1553 1554
1529 1522 1506 1503 1502 1496 1498 1502 1505 1507 1509 1512 1511 1514 1523 1529 1540 1545 1540 1539 1537 1530 1525 1523 1521 1522 1519 1510 1503 1500 1499 1498 1496 1493 1490 1488 1487 1486 1485 1485 1484 1484 1484 1485 1485 1486 1487 1489 1491 1492 1494 1496 1496 1497 1497 1497 1498 1499 1500 1501 1503 1505 1506 1507 1507 1507 1509 1514 1523 1532 1536 1535 1534 1536 1538 1541 1543 1543 1543 1542 1541 1544 1548 1551 1552 1554
1532 1527 1504 1497 1497 1495 1497 1495 1494 1502 1510 1511 1509 1513 1518 1515 1518 1529 1533 1532 1533 1533 1529 1524 1521 1518 1512 1504 1499 1500 1500 1498 1497 1494 1491 1489 1488 1487 1486 1486 1485 1485 1485 1486 1486 1488 1489 1490 1492 1493 1494 1495 1495 1495 1495 1495 1496 1497 1497 1498 1500 1502 1501 1501 1501 1501 1505 1509 1513 1521 1530 1533 1532 1534 1536 1538 1541 1543 1543 1543 1541 1544 1548 1550 1552 1553
1529 1521 1500 1496 1496 1491 1494 1493 1491 1499 1508 1512 1513 1513 1511 1506 1506 1520 1532 1533 1535 1537 1532 1527 1522 1514 1511 1505 1499 1500 1500 1498 1498 1495 1492 1492 1489 1487 1487 1487 1487 1486 1486 1487 1487 1488 1489 1490 1491 1492 1494 1494 1494 1494 1493 1494 1496 1497 1499 1500 1502 1503 1500 1498 1496 1497 1503 1509 1511 1514 1521 1528 1530 1532 1535 1536 1539 1541 1542 1541 1540 1543 1547 1549 1551 1553
1520 1518 1500 1497 1499 1491 1489 1491 1490 1492 1498 1508 1513 1507 1503 1506 1507 1516 1528 1534 1540 1542 1533 1529 1528 1523 1520 1513 1501 1498 1499 1499 1499 1496 1493 1492 1489 1488 1489 1488 1488 1487 1487 1488 1488 1489 1490 1491 1492 1493 1494 1494 1494 1494 1495 1498 1499 1501 1503 1504 1506 1506 1503 1499 1493 1490 1498 1507 1513 1514 1515 1522 1528 1530 1532 1535 1537 1538 1540 1541 1540 1541 1545 1548 1551 1553
1513 1519 1506 1496 1499 1494 1488 1493 1498 1495 1493 1499 1502 1498 1502 1513 1516 1519 1528 1533 1541 1547 1538 1532 1534 1528 1521 1514 1505 1502 1501 1500 1500 1497 1494 1493 1492 1492 1491 1490 1489 1488 1489 1489 1490 1491 1491 1491 1492 1493 1494 1494 1494 1496 1497 1499 1499 1500 1503 1504 1506 1506 1505 1501 1489 1481 1492 1506 1512 1514 1515 1519 1525 1528 1530 1533 1535 1535 1537 1540 1540 1541 1544 1548 1550 1553
1508 1519 1514 1499 1495 1495 1492 1497 1505 1505 1498 1495 1497 1498 1502 1510 1515 1518 1524 1525 1532 1544 1544 1536 1532 1522 1514 1511 1507 1503 1501 1501 1501 1498 1496 1496 1495 1494 1492 1491 1490 1490 1490 1491 1492 1493 1492 1491 1492 1492 1494 1494 1495 1496 1496 1496 1496 1499 1501 1502 1504 1504 1504 1501 1490 1485 1499 1511 1513 1514 1515 1517 1522 1526 1528 1532 1534 1535 1536 1539 1541 1542 1545 1548 1550 1553
1506 1516 1517 1503 1496 1500 1502 1500 1502 1504 1503 1502 1504 1506 1506 1508 1512 1515 1519 1521 1524 1534 1543 1542 1533 1519 1509 1506 1503 1500 1499 1499 1499 1498 1498 1498 1496 1495 1493 1492 1492 1492 1492 1492 1494 1494 1493 1492 1493 1493 1494 1494 1494 1494 1494 1495 1497 1499 1501 1501 1502 1504 1505 1503 1498 1496 1504 1508 1509 1511 1512 1514 1519 1524 1528 1532 1534 1536 1537 1539 1541 1543 1545 1548 1551 1554
1505 1514 1517 1510 1505 1507 1503 1496 1495 1498 1499 1501 1503 1505 1506 1508 1512 1519 1526 1525 1522 1526 1535 1540 1532 1516 1505 1502 1500 1499 1498 1498 1498 1497 1498 1498 1497 1496 1494 1494 1494 1493 1493 1494 1495 1496 1494 1493 1494 1494 1493 1493 1493 1494 1494 1495 1498 1499 1500 1501 1502 1505 1507 1507 1504 1502 1502 1501 1503 1507 1508 1512 1518 1523 1527 1531 1534 1536 1537 1540 1542 1544 1546 1549 1552 1554
1498 1508 1514 1514 1509 1505 1498 1492 1493 1495 1494 1495 1496 1499 1503 1505 1508 1518 1525 1522 1521 1528 1532 1535 1531 1515 1503 1500 1499 1499 1499 1498 1499 1498 1498 1499 1498 1497 1496 1495 1495 1494 1494 1495 1496 1497 1496 1495 1495 1495 1494 1494 1494 1495 1495 1496 1499 1499 1499 1501 1504 1505 1507 1507 1506 1505 1504 1502 1503 1505 1508 1512 1519 1524 1529 1532 1534 1537 1539 1541 1542 1544 1547 1550 1553 1555
1496 1507 1514 1514 1508 1500 1493 1491 1491 1491 1493 1495 1497 1497 1500 1502 1502 1507 1512 1512 1517 1526 1527 1530 1531 1516 1502 1500 1499 1499 1500 1500 1500 1499 1499 1499 1498 1497 1497 1496 1496 1495 1495 1496 1497 1498 1497 1496 1496 1496 1495 1495 1494 1495 1495 1496 1499 1500 1499 1501 1504 1505 1505 1506 1506 1506 1505 1505 1506 1508 1511 1515 1521 1527 1531 1533 1536 1538 1539 1541 1542 1545 1548 1551 1553 1555
1499 1509 1514 1518 1520 1514 1507 1504 1500 1496 1496 1499 1500 1498 1496 1499 1500 1503 1508 1510 1514 1520 1520 1522 1525 1515 1504 1502 1500 1500 1501 1501 1501 1500 1499 1499 1498 1498 1498 1496 1496 1495 1495 1497 1498 1499 1498 1496 1497 1497 1496 1496 1495 1494 1495 1496 1499 1500 1500 1500 1502 1504 1504 1505 1505 1506 1506 1506 1508 1510 1515 1519 1524 1528 1531 1534 1537 1538 1540 1541 1543 1546 1549 1551 1554 1556
1498 1507 1510 1517 1528 1530 1526 1522 1514 1506 1503 1502 1500 1497 1496 1498 1499 1503 1509 1510 1513 1521 1520 1516 1517 1513 1507 1504 1502 1502 1503 1502 1501 1501 1500 1500 1500 1499 1498 1497 1496 1495 1496 1497 1498 1498 1498 1497 1497 1497 1497 1496 1496 1495 1496 1497 1498 1500 1500 1501 1502 1503 1504 1504 1505 1506 1507 1508 1509 1513 1518 1522 1526 1529 1533 1536 1537 1539 1540 1541 1544 1547 1550 1552 1554 1556
1498 1505 1507 1510 1515 1519 1518 1514 1509 1506 1506 1504 1499 1496 1496 1498 1497 1500 1507 1507 1509 1518 1519 1510 1510 1513 1509 1507 1506 1505 1504 1503 1502 1501 1501 1501 1500 1499 1499 1498 1497 1496 1497 1497 1498 1499 1499 1498 1497 1498 1498 1498 1497 1497 1497 1497 1498 1499 1500 1500 1502 1503 1504 1505 1506 1507 1508 1510 1512 1517 1521 1524 1528 1531 1534 1536 1538 1540 1541 1542 1545 1548 1550 1553 1555 1556
1498 1505 1508 1507 1506 1507 1508 1505 1504 1506 1505 1503 1500 1496 1495 1497 1498 1499 1504 1505 1504 1511 1514 1508 1508 1511 1508 1507 1507 1505 1505 1504 1502 1500 1500 1500 1500 1499 1499 1498 1498 1498 1498 1498 1498 1499 1499 1499 1498 1498 1499 1499 1499 1499 1499 1498 1498 1499 1500 1500 1502 1503 1504 1506 1508 1509 1511 1513 1516 1520 1524 1527 1530 1533 1535 1537 1539 1540 1541 1544 1547 1549 1551 1553 1555 1557
1500 1507 1508 1506 1505 1504 1504 1504 1503 1504 1503 1500 1499 1498 1495 1497 1497 1497 1502 1504 1500 1503 1507 1505 1506 1507 1504 1505 1505 1502 1501 1501 1499 1499 1499 1500 1500 1499 1499 1498 1498 1499 1499 1499 1499 1499 1500 1500 1499 1499 1499 1500 1500 1500 1500 1500 1499 1499 1500 1501 1502 1504 1505 1507 1509 1511 1513 1515 1519 1523 1527 1529 1532 1534 1536 1538 1540 1541 1543 1545 1548 1550 1552 1554 1555 1557
1501 1507 1507 1508 1507 1503 1503 1504 1503 1503 1503 1500 1500 1499 1497 1497 1497 1497 1502 1504 1500 1502 1505 1505 1505 1504 1501 1502 1502 1499 1499 1499 1498 1499 1499 1500 1500 1499 1499 1499 1498 1499 1499 1499 1500 1500 1500 1501 1500 1500 1500 1501 1501 1501 1501 1501 1501 1501 1502 1503 1504 1505 1506 1508 1510 1512 1514 1517 1520 1524 1527 1530 1533 1535 1537 1539 1540 1542 1544 1546 1549 1550 1552 1554 1556 1557
1499 1507 1509 1507 1507 1505 1502 1502 1502 1503 1503 1501 1501 1500 1497 1497 1498 1498 1501 1502 1500 1503 1506 1506 1506 1504 1499 1499 1500 1499 1499 1499 1499 1500 1500 1500 1501 1500 1499 1499 1498 1499 1499 1500 1500 1500 1501 1502 1501 1501 1501 1502 1502 1502 1502 1502 1502 1503 1503 1504 1506 1507 1508 1510 1512 1513 1515 1518 1522 1525 1528 1530 1533 1535 1537 1539 1541 1543 1545 1547 1549 1551 1553 1554 1556 1558
1500 1507 1508 1506 1510 1510 1503 1501 1502 1501 1500 1501 1502 1501 1500 1499 1500 1499 1499 1498 1497 1500 1505 1507 1507 1503 1498 1497 1500 1499 1499 1500 1500 1500 1500 1500 1500 1500 1499 1498 1498 1499 1499 1500 1500 1501 1501 1502 1502 1502 1502 1502 1503 1503 1504 1504 1504 1504 1505 1506 1508 1509 1510 1512 1514 1516 1518 1520 1523 1526 1528 1531 1533 1536 1538 1540 1541 1543 1546 1548 1550 1551 1553 1555 1557 1558
1505 1507 1508 1511 1515 1512 1505 1504 1502 1500 1506 1510 1505 1501 1500 1500 1500 1499 1497 1497 1495 1497 1502 1504 1502 1498 1496 1496 1498 1500 1500 1501 1501 1500 1500 1500 1500 1499 1499 1498 1499 1499 1499 1500 1500 1501 1502 1502 1503 1503 1503 1503 1504 1504 1505 1505 1506 1506 1507 1508 1510 1511 1513 1515 1516 1518 1520 1522 1525 1527 1529 1532 1534 1536 1538 1540 1542 1544 1546 1548 1550 1552 1554 1555 1557 1559
1507 1507 1510 1514 1516 1513 1508 1503 1502 1511 1521 1515 1501 1496 1497 1498 1498 1498 1496 1495 1494 1493 1495 1496 1495 1495 1495 1495 1496 1498 1500 1500 1500 1499 1499 1499 1498 1499 1498 1498 1499 1499 1499 1500 1501 1501 1502 1502 1503 1504 1504 1504 1504 1505 1506 1507 1507 1508 1509 1510 1512 1513 1514 1516 1518 1520 1522 1524 1526 1528 1530 1532 1534 1536 1538 1540 1543 1545 1547 1549 1550 1552 1554 1556 1558 1559
1507 1507 1511 1513 1515 1516 1511 1505 1515 1527 1520 1502 1493 1493 1493 1493 1494 1495 1495 1494 1493 1493 1493 1493 1493 1493 1494 1494 1495 1496 1498 1499 1499 1499 1499 1499 1498 1498 1498 1498 1498 1499 1499 1500 1501 1501 1502 1502 1503 1504 1504 1505 1505 1506 1507 1508 1509 1510 1511 1512 1514 1515 1516 1518 1519 1521 1523 1525 1527 1529 1531 1533 1535 1537 1539 1541 1543 1545 1547 1549 1551 1553 1554 1556 1558 1560
1504 1506 1509 1512 1515 1517 1516 1516 1524 1523 1506 1494 1494 1494 1491 1493 1494 1495 1498 1495 1491 1492 1493 1492 1492 1492 1493 1495 1495 1496 1497 1498 1499 1499 1499 1499 1498 1498 1499 1499 1499 1499 1499 1500 1501 1502 1502 1503 1503 1504 1505 1505 1506 1507 1507 1509 1510 1511 1512 1514 1515 1517 1518 1520 1521 1522 1524 1526 1528 1530 1532 1534 1536 1537 1539 1542 1544 1546 1548 1550 1551 1553 1555 1556 1558 1560
1501 1504 1506 1511 1516 1519 1521 1521 1518 1513 1505 1500 1497 1493 1491 1493 1493 1495 1501 1496 1487 1488 1490 1490 1491 1493 1493 1495 1496 1496 1497 1499 1499 1499 1498 1498 1499 1499 1499 1499 1500 1500 1500 1501 1502 1502 1503 1503 1504 1505 1505 1506 1507 1508 1508 1510 1511 1512 1513 1515 1516 1518 1519 1521 1522 1524 1526 1528 1529 1531 1533 1535 1536 1538 1540 1542 1544 1546 1548 1550 1552 1554 1555 1557 1558 1560
1498 1502 1503 1509 1516 1518 1521 1522 1520 1521 1517 1505 1494 1488 1487 1490 1489 1490 1498 1497 1486 1484 1487 1488 1490 1492 1493 1495 1496 1496 1498 1501 1502 1499 1497 1498 1499 1499 1499 1500 1500 1500 1501 1501 1502 1502 1503 1504 1504 1505 1506 1507 1508 1509 1509 1511 1512 1513 1514 1516 1517 1519 1520 1522 1523 1525 1527 1529 1531 1532 1534 1536 1538 1539 1541 1543 1544 1546 1548 1550 1552 1553 1555 1556 1558 1559
1498 1501 1502 1508 1515 1516 1517 1522 1525 1525 1515 1500 1491 1486 1486 1490 1486 1488 1504 1504 1486 1479 1484 1486 1488 1491 1491 1493 1495 1495 1499 1505 1503 1497 1495 1497 1498 1498 1499 1500 1500 1500 1501 1501 1502 1502 1503 1504 1504 1505 1506 1507 1509 1510 1510 1511 1513 1514 1515 1516 1518 1519 1521 1522 1524 1526 1528 1530 1532 1534 1536 1537 1539 1540 1542 1543 1545 1547 1548 1550 1551 1553 1555 1556 1558 1559
1501 1502 1504 1508 1513 1513 1515 1519 1522 1517 1505 1494 1488 1486 1488 1487 1484 1499 1521 1511 1481 1475 1482 1483 1485 1489 1490 1492 1494 1495 1499 1502 1500 1496 1495 1497 1498 1498 1499 1499 1499 1500 1500 1501 1502 1502 1503 1504 1505 1505 1506 1508 1509 1510 1511 1512 1513 1515 1516 1517 1519 1520 1522 1524 1526 1527 1529 1531 1533 1535 1537 1538 1540 1541 1543 1544 1545 1547 1548 1549 1551 1553 1554 1555 1557 1558
1505 1505 1508 1510 1510 1512 1514 1516 1517 1510 1497 1488 1485 1484 1484 1486 1494 1512 1518 1496 1474 1476 1481 1480 1484 1487 1488 1491 1493 1494 1496 1497 1496 1495 1495 1496 1497 1498 1498 1499 1499 1500 1500 1501 1502 1502 1503 1504 1505 1506 1507 1508 1509 1511 1511 1512 1513 1515 1517 1518 1519 1521 1523 1525 1527 1528 1530 1532 1534 1535 1537 1539 1540 1542 1543 1545 1546 1547 1548 1549 1550 1552 1553 1554 1555 1556
1510 1510 1512 1511 1511 1513 1513 1513 1515 1508 1491 1482 1484 1483 1484 1493 1504 1504 1490 1476 1474 1477 1478 1480 1485 1486 1487 1490 1492 1493 1494 1495 1495 1496 1496 1496 1497 1498 1498 1498 1499 1499 1500 1501 1501 1502 1503 1504 1505 1506 1507 1508 1510 1511 1512 1512 1514 1515 1517 1519 1520 1522 1524 1526 1527 1529 1531 1532 1534 1536 1537 1539 1540 1542 1543 1544 1545 1547 1548 1549 1550 1551 1552 1553 1554 1555
1511 1512 1515 1513 1511 1515 1516 1515 1517 1511 1493 1483 1486 1487 1487 1491 1492 1482 1474 1474 1476 1476 1478 1483 1485 1485 1488 1490 1491 1493 1495 1494 1495 1496 1496 1496 1497 1497 1498 1498 1499 1499 1500 1500 1501 1502 1503 1504 1505 1506 1507 1508 1510 1511 1512 1513 1514 1515 1517 1519 1521 1523 1524 1526 1528 1529 1531 1533 1534 1536 1537 1539 1540 1541 1543 1544 1545 1546 1547 1548 1549 1551 1551 1552 1553 1554
1511 1514 1520 1517 1512 1515 1517 1511 1505 1501 1493 1488 1489 1487 1483 1480 1477 1474 1474 1476 1476 1477 1481 1483 1484 1486 1488 1489 1491 1493 1494 1494 1495 1495 1495 1497 1497 1497 1498 1498 1499 1500 1500 1501 1502 1502 1503 1505 1506 1506 1507 1508 1510 1511 1512 1513 1514 1515 1517 1519 1521 1523 1525 1526 1528 1530 1531 1533 1534 1536 1537 1538 1540 1541 1542 1543 1545 1546 1547 1548 1549 1549 1550 1551 1552 1553
1512 1512 1516 1516 1511 1511 1511 1504 1496 1492 1489 1488 1486 1483 1479 1477 1477 1477 1476 1476 1477 1479 1482 1483 1484 1487 1488 1489 1491 1493 1493 1494 1495 1495 1496 1497 1497 1498 1498 1498 1499 1500 1500 1501 1502 1503 1504 1505 1506 1507 1508 1508 1510 1511 1512 1513 1514 1516 1517 1519 1521 1523 1525 1527 1528 1530 1531 1532 1534 1535 1537 1538 1539 1541 1542 1543 1544 1545 1546 1547 1548 1549 1550 1550 1551 1552
1511 1509 1510 1511 1508 1505 1503 1500 1495 1490 1486 1483 1483 1482 1480 1479 1478 1478 1478 1478 1479 1480 1482 1484 1486 1486 1488 1490 1491 1492 1493 1494 1494 1495 1496 1496 1497 1498 1498 1499 1499 1500 1500 1501 1502 1503 1504 1505 1506 1507 1507 1508 1509 1511 1512 1513 1514 1516 1518 1519 1521 1523 1525 1527 1528 1529 1531 1532 1533 1535 1536 1538 1539 1540 1541 1542 1543 1544 1545 1546 1547 1548 1549 1550 1550 1551
1509 1508 1508 1508 1507 1505 1501 1498 1495 1490 1485 1482 1482 1480 1480 1481 1481 1480 1480 1481 1481 1482 1484 1485 1486 1487 1489 1490 1491 1492 1494 1494 1494 1495 1495 1496 1497 1498 1498 1499 1500 1500 1501 1502 1502 1503 1504 1505 1506 1506 1507 1508 1509 1510 1511 1513 1514 1516 1518 1519 1521 1523 1525 1526 1528 1529 1530 1532 1533 1534 1536 1537 1538 1539 1541 1542 1543 1544 1545 1546 1546 1547 1548 1549 1549 1550
1509 1509 1508 1507 1507 1505 1502 1498 1493 1487 1482 1481 1481 1481 1482 1483 1483 1482 1483 1483 1483 1484 1485 1486 1487 1488 1489 1490 1492 1493 1494 1494 1495 1495 1495 1496 1497 1498 1498 1499 1500 1500 1501 1502 1502 1503 1504 1504 1505 1506 1506 1507 1508 1510 1511 1512 1513 1515 1517 1519 1521 1523 1524 1526 1528 1529 1530 1531 1533 1534 1535 1536 1538 1539 1540 1542 1543 1544 1545 1545 1546 1546 1547 1547 1548 1548
1509 1509 1508 1507 1507 1505 1502 1499 1493 1486 1481 1478 1479 1482 1484 1485 1484 1484 1486 1486 1485 1485 1486 1487 1488 1489 1490 1491 1492 1493 1494 1495 1495 1495 1495 1496 1497 1497 1499 1499 1500 1500 1501 1501 1502 1503 1504 1504 1505 1505 1505 1506 1508 1509 1510 1511 1513 1515 1516 1518 1520 1522 1524 1526 1527 1528 1530 1531 1532 1533 1535 1536 1537 1539 1540 1541 1542 1543 1544 1545 1545 1546 1546 1546 1546 1547
1509 1509 1507 1508 1510 1510 1508 1506 1504 1502 1497 1488 1483 1484 1486 1487 1486 1486 1487 1488 1487 1487 1487 1488 1488 1489 1491 1492 1493 1493 1494 1495 1494 1495 1496 1496 1497 1498 1499 1499 1500 1501 1501 1502 1502 1503 1504 1505 1505 1505 1506 1506 1507 1508 1510 1511 1512 1514 1516 1518 1520 1521 1523 1525 1526 1528 1529 1530 1531 1533 1534 1535 1537 1538 1539 1540 1541 1542 1543 1544 1544 1545 1545 1545 1545 1545
1508 1507 1507 1510 1513 1512 1510 1508 1509 1509 1504 1496 1490 1487 1485 1486 1487 1488 1488 1488 1488 1488 1488 1489 1489 1490 1491 1492 1493 1494 1494 1494 1495 1495 1496 1496 1497 1498 1498 1499 1500 1500 1501 1502 1502 1503 1504 1505 1505 1506 1506 1506 1507 1508 1509 1511 1512 1514 1515 1517 1519 1521 1523 1525 1525 1527 1528 1529 1531 1532 1533 1535 1536 1537 1538 1539 1540 1541 1542 1543 1543 1544 1544 1544 1545 1545